Weather in Slavyanka

Russia / Primorsky Krai     42°51′53″N   131°23′08″E
temp.,
°C
wind,
m/s
gust,
m/s
humid.,
%
clouds,
%
prec.,
mm/h
press.,
hPa
HPBL,
m
20 september, mon
mon2001:00+18nne8878100 0.0 1018302
04:00+16nne101273100 0.0 1018387
07:00+16nne101270100 0.0 1019436
10:00+16nne10107185 0.0 1020456
13:00+18e7980100 0.0 1019694
16:00+20se5686100 0.1 1018486
19:00+20se8888100 0.1 1017523
22:00+20se91089100 0.1 1015586
21 september, tue
tue2101:00+19se7987100 0.2 1014503
04:00+20se101187100 0.9 1012617
07:00+19ese121490100 1.3 1010817
10:00+19se131692100 5.0 1008947
13:00+20se141696100 9.8 1004600
16:00+20sse111698100 17.9 1001543
19:00+21s91395100 2.4 1001382
22:00+20s6996100 3.3 1001225
22 september, wed
wed2201:00+21ssw7108834 0.6 1000235
04:00+20wnw119216 0.6 100013
07:00+19w129359 1.6 100162
10:00+19nne129465 3.3 1002129
13:00+20sse33895 1.1 1001114
16:00+21nnw228512 1.4 1001127
19:00+21wnw227899 1.6 100229
22:00+19wnw338085 2.9 100447
23 september, thu
thu2301:00+18nnw447896 0.3 1006151
04:00+18nnw457657 0.3 1007281
07:00+17n788197 0.0 1009439
10:00+17n81078100 0.0 1012761
13:00+16nne71082100 0.3 1013686
16:00+16nne11127936 0.4 1014621
19:00+16nne1112785 0.0 1017617
22:00+14nne1012797 0.0 1019693
24 september, fri
fri2401:00+14nne9117738 0.0 1020674
04:00+14n9117685 0.0 1021747
07:00+14n810740 0.0 1022762
10:00+14n89720 0.0 1024711
13:00+16nne786318 0.0 1024976
16:00+17nne1010640 0.0 1024914
19:00+16ne1112700 0.0 1025706
22:00+15nne910740 0.0 1026538